Flag for Austria Past Weather in Waidhofen an der Thaya, Lower Austria, Austria — Yesterday and Last 2 Weeks

Now
70 °F

Scattered clouds.


Feels Like: 70 °F
Forecast: 55 / 64 °F
Wind: 2 mph from Southeast

Location: Retz

Current Time: May 30, 2016 at 8:36:26 PM

Latest Report: May 30, 2016 at 8:00 PM


Visibility: 19 mi

Pressure: 29.72 "Hg (28.02 "Hg at 506m altitude)

Humidity: 60%

Dew Point: 55 °F

Location of Waidhofen an der ThayaLocation

Past Weather in Waidhofen an der Thaya — Graph

°F

Waidhofen an der Thaya Temperature Yesterday

Maximum temperature yesterday: 77 °F (at 4:00 PM)
Minimum temperature yesterday: 60 °F (at 5:00 AM)
Average temperature yesterday: 69 °F

High & Low Weather Summary for the Past Weeks

 TemperatureHumidityPressure
High78 °F (May 28, 1:00 PM)96% (May 24, 10:00 AM)30.13 "Hg (May 24, 10:00 AM)
Low42 °F (May 16, 3:00 AM)31% (May 18, 3:00 PM)29.61 "Hg (May 29, 10:00 PM)
Average61 °F66%29.91 "Hg
* Reported May 15 7:00 PM — May 30 7:00 PM, Waidhofen an der Thaya, Weather by CustomWeather, © 2016

Note: Actual official high and low records may vary slightly from our data, if they occured in-between our weather recording intervals... More about our weather records

Advertising

Waidhofen an der Thaya Weather History for the Previous 24 Hours

Scroll right to see more
 ConditionsComfort  
Time TempWeatherWind HumidityBarometerVisibility
7:00 PM
Mon, May 30
72 °FMild.3 mph52%29.70 "HgN/A
6:00 PM73 °FMild.6 mph51%29.70 "HgN/A
5:00 PM73 °FMild.5 mph53%29.71 "HgN/A
4:00 PM74 °FMild.3 mph47%29.71 "HgN/A
3:00 PM73 °FMild.3 mph53%29.72 "HgN/A
2:00 PM70 °FPartly sunny.3 mph62%29.73 "Hg22 mi
1:00 PM69 °FMild.5 mph64%29.73 "HgN/A
12:00 PM68 °FMild.3 mph65%29.72 "HgN/A
11:00 AM68 °FMild.3 mph66%29.71 "HgN/A
10:00 AM67 °FMild.5 mph67%29.69 "HgN/A
9:00 AM66 °FMild.6 mph67%29.69 "HgN/A
8:00 AM63 °FScattered clouds.1 mph79%29.69 "Hg14 mi
7:00 AM61 °FScattered clouds.2 mph83%29.69 "Hg14 mi
6:00 AM60 °FCool.3 mph78%29.68 "HgN/A
5:00 AM61 °FCool.2 mph74%29.66 "HgN/A
4:00 AM64 °FMild.2 mph66%29.64 "HgN/A
3:00 AM66 °FMild.1 mph60%29.63 "HgN/A
2:00 AM67 °FMild.2 mph58%29.63 "HgN/A
1:00 AM68 °FMild.1 mph63%29.62 "HgN/A
12:00 AM69 °FMild.3 mph72%29.62 "HgN/A
11:00 PM
Sun, May 29
70 °FMild.3 mph71%29.62 "HgN/A
10:00 PM72 °FMild.5 mph66%29.61 "HgN/A
9:00 PM72 °FMild.5 mph70%29.62 "HgN/A
8:00 PM75 °FMild.6 mph65%29.63 "HgN/A
Weather by CustomWeather, © 2016

See weather overviewHow to use our weather pages